Location: *
(37.5724°S, 58.0067°E)
Time: 10:14:13
(UTC+00:00)

Cosmos 1980 - Pass Details

Date: 24 January 2021
Orbit: 840 x 846 km, 71.0° (Epoch: 07 March)

Event Time Altitude Azimuth Distance (km) Brightness Sun altitude
Rises 23:06:59 0° 208° (SSW) 3,439 7.1 -21.2°
Reaches altitude 10° 23:09:30 10° 212° (SSW) 2,496 6.3 -20.9°
Maximum altitude 23:15:03 53° 287° (WNW) 1,039 3.8 -20.1°
Enters shadow 23:17:26 32° 346° (NNW) 1,423 4.4 -19.8°
